SCP
0 0 1 1 1 1 1 1 1 1 1 1 1 1 1 0 0 0 0 0 0 0 0 0 0 0 0 0 0 0 0 0 0 0 0 0 0 0 0 0 0 0 0 0
0 0 0 1 1 1 1 1 1 1 1 1 1 1 0 0 0 0 0 0 0 0 0 0 0 0 0 0 0 0 0 0 0 0 0 0 0 0 0 0 0 0 0 0
0 0 0 1 1 1 1 1 1 1 1 1 1 0 0 0 0 0 0 0 0 0 0 0 0 0 0 0 0 0 0 0 0 0 0 0 0 0 0 0 0 0 0 0
0 0 0 0 1 1 1 1 1 1 1 1 1 0 0 0 0 0 0 0 0 0 0 0 0 0 0 0 0 0 0 0 0 0 0 0 0 0 0 0 0 0 0 0
0 0 0 0 0 0 0 1 1 1 1 1 0 0 0 0 0 0 0 0 0 0 0 0 0 0 0 0 0 0 0 0 0 0 0 0 0 0 0 0 0 0 0 0
0 0 0 0 0 0 0 0 0 1 1 1 0 0 0 0 0 0 0 0 0 0 0 0 0 0 0 0 0 0 0 0 0 0 0 0 0 0 0 0 0 0 0 0
0 0 0 0 0 0 0 0 0 1 1 0 0 0 0 0 0 0 0 0 0 0 0 0 0 0 0 0 0 0 0 0 0 0 0 0 0 0 0 0 0 0 0 0
0 0 0 0 0 0 0 0 0 0 0 0 0 0 0 0 0 0 0 0 0 0 0 0 0 0 0 0 0 0 0 0 0 0 0 0 0 0 0 0 0 0 0 0
0 0 0 0 0 0 0 0 0 0 0 0 0 0 0 0 0 0 0 0 0 0 0 0 0 0 0 0 0 0 0 0 0 0 0 0 0 0 0 0 0 0 0 0
0 0 0 0 0 0 0 0 0 0 0 0 0 0 0 0 0 0 0 0 0 0 0 0 0 0 0 0 0 0 0 0 0 0 0 0 0 0 0 0 0 0 0 0
0 0 0 0 0 0 0 0 0 0 0 0 0 0 0 0 0 0 0 0 0 0 0 0 0 0 0 0 0 0 0 0 0 0 0 0 0 0 0 0 0 0 0 0
0 0 0 0 0 0 0 0 0 0 0 0 0 0 0 0 0 0 0 0 0 0 0 0 0 0 0 0 0 0 0 0 0 0 0 0 0 0 0 0 0 0 0 0
0 0 0 0 0 0 0 0 0 0 0 0 0 0 0 0 0 0 0 0 0 0 0 0 0 0 0 0 0 0 0 0 0 0 0 0 0 0 0 0 0 0 0 0
0 0 0 0 0 0 0 0 0 0 0 0 0 0 0 0 0 0 0 0 0 0 0 0 0 0 0 0 0 0 0 0 0 0 0 0 0 0 0 0 0 0 0 0
0 0 0 0 0 0 0 0 0 0 0 0 0 0 0 0 0 0 0 0 0 0 0 0 0 0 0 0 0 0 0 0 0 0 0 0 0 0 0 0 0 0 0 0
0 0 0 0 0 0 0 0 0 0 0 0 0 0 0 0 0 0 0 0 0 0 0 0 0 0 0 0 0 0 0 0 0 0 0 0 0 0 0 0 0 0 0 0
0 0 0 0 0 0 0 0 0 0 0 0 0 0 0 0 0 0 0 0 0 0 0 0 0 0 0 0 0 0 0 0 0 0 0 0 0 0 0 0 0 0 0 0
0 0 0 0 0 0 0 0 0 0 0 0 0 0 0 0 0 0 0 0 0 0 0 0 0 0 0 0 0 0 0 0 0 0 0 0 0 0 0 0 0 0 0 0
0 0 0 0 0 0 0 0 0 0 0 0 0 0 0 0 0 0 0 0 0 0 0 0 0 0 0 0 0 0 0 0 0 0 0 0 0 0 0 0 0 0 0 0
0 0 0 0 0 0 0 0 0 0 0 0 0 0 0 0 0 0 0 0 0 0 0 0 0 0 0 0 0 0 0 0 0 0 0 0 0 0 0 0 0 0 0 0
0 0 0 0 0 0 0 0 0 0 0 0 0 0 0 0 0 0 0 0 0 0 0 0 0 0 0 0 0 0 0 0 0 0 0 0 0 0 0 0 0 0 0 0
0 0 0 0 0 0 0 0 0 0 0 0 0 0 0 0 0 0 0 0 0 0 0 0 0 0 0 0 0 0 0 0 0 0 0 0 0 0 0 0 0 0 0 0
0 0 0 0 0 0 0 0 0 0 0 0 0 0 0 0 0 0 0 0 0 0 0 0 0 0 0 0 0 0 0 0 0 0 0 0 0 0 0 0 0 0 0 0
0 0 0 0 0 0 0 0 0 0 0 0 0 0 0 0 0 0 0 0 0 0 0 0 0 0 0 0 0 0 0 0 0 0 0 0 0 0 0 0 0 0 0 0
0 0 0 0 0 0 0 0 0 0 0 0 0 0 0 0 0 0 0 0 0 0 0 0 0 0 0 0 0 0 0 0 0 0 0 0 0 0 0 0 0 0 0 0
1 1 1 0 0 0 0 0 0 0 0 0 0 0 0 0 0 0 0 0 0 0 0 0 0 0 0 0 0 0 0 0 0 0 0 0 0 0 0 0 0 0 0 0
1 1 1 0 0 0 0 0 0 0 0 0 0 0 0 0 0 0 0 0 0 0 0 0 0 0 0 0 0 0 0 0 0 0 0 0 0 0 0 0 0 0 0 0
Wind_Speed
2 3 3 4 6 8 9 10 7 9 10 11 13 14 14 13 13 13 12 11 10 9 8 8 8 8 8 7 7 8 8 9 8 7 6 5 4 4 3 4 5 4 4 5
4 5 2 5 8 10 10 11 11 12 9 10 13 13 13 12 12 12 11 11 10 9 8 7 7 6 6 6 6 6 7 8 7 6 5 5 4 4 4 4 4 4 4 5
3 4 4 6 9 10 11 10 7 7 9 13 13 12 12 13 12 13 12 11 9 8 7 6 5 4 5 6 5 6 6 6 5 5 4 4 4 4 4 3 3 3 3 4
3 1 2 5 6 8 10 12 12 14 13 12 13 11 10 10 12 12 12 11 9 7 7 6 5 3 3 4 5 5 5 5 5 5 4 4 4 3 3 3 2 2 3 3
2 2 7 5 4 5 6 10 11 13 14 14 16 14 9 8 10 11 11 9 8 7 7 5 4 3 3 4 4 4 5 4 5 4 4 4 4 3 3 2 2 2 2 3
3 1 3 6 6 4 5 7 9 12 13 14 12 7 6 9 11 12 11 9 8 7 7 5 4 2 3 4 4 4 4 5 4 4 3 3 4 3 2 2 2 3 3 3
3 2 7 6 3 2 1 5 9 10 10 9 5 7 13 13 12 11 10 9 8 7 6 5 4 3 3 4 4 4 4 4 4 3 1 2 2 2 2 3 2 2 2 2
3 3 6 6 5 6 7 9 10 11 11 12 15 16 15 14 12 11 10 10 9 7 6 5 4 4 4 4 3 4 4 3 2 2 3 3 2 2 2 3 3 2 2 2
7 7 8 9 10 10 11 11 12 13 14 16 17 16 14 13 12 11 10 9 7 7 6 5 4 3 4 3 3 3 3 2 1 2 2 2 3 2 2 3 3 3 3 3
8 9 10 11 11 11 12 13 14 14 15 15 16 15 13 11 10 10 9 8 7 7 7 5 4 5 4 3 2 2 2 0 0 0 1 1 2 3 4 5 5 5 4 4
10 11 10 10 11 13 14 15 15 15 15 15 15 14 13 11 10 9 8 7 7 7 7 6 5 4 4 3 2 1 0 1 1 1 1 2 3 4 5 5 4 4 5 5
7 11 9 12 12 14 14 14 15 15 15 14 14 14 13 11 9 9 9 7 6 6 6 6 5 4 3 2 1 1 1 2 1 1 0 1 3 5 6 5 4 3 3 3
11 13 15 15 14 14 14 15 15 15 15 14 13 12 12 11 9 9 8 8 7 6 6 5 4 3 3 2 1 1 1 2 2 2 2 1 2 3 3 3 2 1 2 4
15 17 17 15 14 14 15 15 15 15 14 14 12 12 11 10 9 9 8 7 6 6 5 4 3 3 2 2 1 1 1 0 2 1 1 2 2 1 1 2 3 3 4 7
14 14 15 16 15 15 15 15 15 14 14 13 12 11 11 10 9 8 7 6 5 4 3 3 3 3 1 1 0 1 1 1 1 1 1 1 1 1 2 3 2 2 2 3
15 16 17 17 16 16 15 15 14 14 14 13 12 11 11 10 9 8 7 5 4 2 2 2 2 2 1 1 1 1 1 1 2 2 1 1 2 2 2 2 2 2 2 3
18 18 17 17 16 16 15 14 13 13 13 13 12 12 11 10 8 7 6 5 4 3 3 2 1 0 1 1 2 2 3 4 3 3 1 3 3 3 3 3 3 2 3 3
16 16 16 16 15 15 15 15 14 14 13 13 13 11 10 9 7 6 6 5 4 3 2 1 2 3 2 2 2 3 1 3 3 2 3 4 3 3 3 3 3 3 1 1
17 17 17 16 15 14 14 14 14 13 13 13 12 10 9 8 7 6 5 5 5 4 3 5 3 3 3 2 2 4 3 1 3 3 4 3 1 2 3 2 2 2 3 3
18 18 17 17 16 15 14 14 14 13 12 12 11 10 9 8 7 6 4 3 3 4 5 5 4 5 3 3 2 5 1 2 3 4 3 3 3 3 2 2 2 2 3 3
18 18 18 17 16 15 15 15 13 13 12 12 11 10 8 7 6 5 4 5 5 4 4 4 4 3 1 2 3 6 0 3 4 4 4 4 3 3 2 1 2 2 2 3
17 17 17 17 15 14 14 13 13 13 12 11 11 10 9 7 6 5 2 4 6 4 3 4 3 4 4 4 7 3 3 4 3 4 4 3 3 2 2 1 2 2 3 3
15 16 16 16 15 15 14 13 13 12 12 11 10 10 9 7 6 6 6 5 6 4 2 4 5 3 4 6 6 2 4 3 3 4 4 3 3 2 2 2 2 2 3 3
15 15 15 15 15 15 14 13 12 10 11 10 10 9 7 6 4 3 7 8 7 5 4 5 3 0 4 6 5 2 4 3 3 3 4 4 4 3 2 2 2 2 3 3
15 15 15 15 14 12 13 13 12 12 11 9 10 10 8 6 5 6 8 9 9 6 6 6 5 5 6 7 2 3 4 4 4 2 3 2 3 4 3 2 2 2 2 3
14 12 12 11 10 9 11 11 10 10 10 9 9 9 8 6 7 7 7 10 11 7 5 6 7 7 8 5 2 5 5 5 4 2 2 1 2 3 3 2 2 1 2 3
14 11 10 11 11 11 11 11 11 11 10 10 9 9 8 7 7 8 8 8 9 8 8 8 8 8 6 3 4 4 3 3 3 3 3 2 2 2 3 2 1 1 1 3
Wind_Direction
218 267 285 316 360 19 19 22 49 97 114 131 131 129 128 127 126 122 119 115 111 108 103 100 95 91 90 91 93 97 98 96 94 94 93 90 84 75 62 54 63 58 57 57
201 198 174 60 39 46 46 55 86 98 95 114 118 119 124 128 129 125 121 117 112 108 104 98 93 93 95 94 97 100 100 101 102 102 103 105 98 79 66 54 45 43 42 54
240 156 124 67 38 52 55 44 57 87 113 124 121 126 133 135 132 128 127 123 119 113 104 98 93 94 100 98 100 98 98 102 107 104 96 88 81 69 54 47 43 39 34 63
290 244 87 78 58 72 76 67 77 96 112 117 117 114 115 126 129 130 131 129 126 120 112 106 101 94 101 109 107 106 104 101 101 94 88 81 73 60 48 36 24 23 32 63
317 52 110 111 68 51 80 86 96 110 115 118 118 108 99 117 127 130 131 130 129 125 123 120 116 113 107 102 101 100 95 91 84 73 70 69 64 48 35 13 5 358 34 59
312 5 87 85 59 49 101 101 112 124 133 139 147 130 129 131 127 126 127 129 130 130 129 127 130 137 132 114 106 97 87 79 69 55 49 51 47 25 4 345 349 1 34 53
327 74 85 51 28 352 40 111 124 129 137 143 136 111 130 135 131 130 130 131 134 137 137 141 150 153 121 108 102 96 88 81 71 43 17 70 52 7 342 352 8 3 18 56
349 64 77 16 40 56 90 109 113 113 114 111 108 116 128 132 133 134 135 139 143 141 138 142 150 142 121 107 97 93 88 79 66 27 0 58 39 9 3 349 350 14 29 50
47 75 79 63 79 93 105 107 109 112 115 119 122 127 130 130 133 137 140 142 144 140 133 129 130 119 111 98 88 87 85 68 50 48 23 15 357 8 8 4 9 11 21 23
109 106 100 97 98 100 102 107 112 117 122 124 124 127 128 130 132 134 135 138 142 139 133 127 122 113 114 109 92 81 79 59 229 223 14 47 15 24 39 29 17 8 19 13
111 124 119 111 109 108 109 111 114 118 120 123 126 129 130 130 131 131 132 134 137 130 128 129 132 128 125 114 102 92 60 304 306 10 68 77 78 50 49 63 47 16 12 7
147 152 139 127 121 121 120 119 121 121 122 126 129 129 130 129 130 130 129 132 132 131 130 131 130 124 114 112 98 10 333 335 329 340 75 115 127 111 62 94 114 82 41 1
116 129 122 126 127 125 123 122 122 124 126 128 129 131 129 129 130 130 132 133 130 132 132 133 139 139 135 125 89 39 341 343 333 2 32 42 88 132 153 146 178 239 278 297
116 120 126 130 127 125 125 124 123 125 127 127 129 130 129 130 133 134 132 131 136 140 142 150 155 139 137 140 165 281 293 191 311 360 36 31 39 28 104 153 171 188 220 250
128 131 130 129 128 129 130 131 132 131 130 131 134 133 133 133 134 131 132 134 139 150 150 150 141 136 145 151 207 314 347 41 28 7 10 36 41 27 34 48 60 85 150 206
133 131 134 136 137 140 141 141 139 138 138 139 138 137 136 136 134 133 136 135 134 121 98 93 106 130 158 202 238 236 110 30 322 313 12 60 45 34 44 47 53 51 46 37
144 146 148 146 147 148 146 145 142 142 141 141 139 138 138 138 137 140 140 126 114 97 91 100 99 126 197 188 270 257 179 162 211 256 35 61 54 40 46 42 44 48 52 48
151 151 151 150 151 149 149 147 145 143 143 141 141 144 145 146 148 146 137 132 136 136 141 121 61 338 323 44 355 321 288 159 164 105 81 60 39 42 54 53 41 32 20 109
150 150 150 152 151 150 149 146 146 146 146 146 147 149 151 151 147 146 151 170 179 171 140 103 98 271 275 88 299 271 257 161 124 106 105 117 129 72 63 53 46 29 19 30
149 150 151 151 151 150 148 146 147 146 147 149 150 153 154 152 154 157 164 151 97 106 128 134 208 243 235 161 233 279 253 129 121 117 111 112 96 84 72 50 37 34 22 22
152 152 153 152 151 151 150 150 150 151 152 155 157 158 155 157 164 161 185 155 127 122 132 151 234 270 59 37 255 275 244 106 111 113 111 107 98 92 77 44 35 42 33 23
154 154 154 152 152 150 149 151 153 155 156 162 165 161 157 166 171 161 140 112 130 130 209 203 155 66 36 328 281 260 114 106 112 114 109 109 112 111 107 75 50 48 45 41
153 154 154 153 153 151 151 156 159 160 164 170 170 165 169 178 181 177 158 147 145 155 207 78 92 77 3 295 273 123 99 104 112 119 122 126 124 119 111 95 79 69 51 38
152 154 154 153 153 155 159 163 160 163 170 176 171 169 175 180 184 145 112 117 117 143 135 119 144 312 306 274 264 144 131 138 139 133 136 141 137 125 110 95 87 87 82 64
154 155 156 157 159 162 164 164 162 169 178 182 173 173 188 194 171 142 137 140 145 164 157 165 206 238 260 267 248 107 89 71 55 47 98 116 136 130 119 99 77 76 74 69
155 160 159 165 163 163 167 170 172 176 183 182 178 178 191 184 155 140 150 159 169 192 198 175 191 216 239 244 132 112 123 148 169 183 119 135 113 110 106 103 117 90 90 82
161 160 161 171 172 175 176 178 180 181 186 185 181 178 182 177 166 168 174 170 173 190 207 196 194 205 211 170 129 138 152 158 159 155 161 168 142 139 139 162 136 95 81 98